SCP
0 0 0 0 0 0 0 0 0 0 0 0 0 0 0 0 0 0 0 0 0 0
0 0 0 0 0 0 0 0 0 0 0 0 0 0 0 0 0 0 0 0 0 0
0 0 0 0 0 0 0 0 0 0 0 0 0 0 0 0 0 0 0 0 0 0
0 0 0 0 0 0 0 0 0 0 0 0 0 0 0 0 0 0 0 0 0 0
0 0 0 0 0 0 0 0 0 0 0 0 0 0 0 0 0 0 0 0 0 0
0 0 0 0 0 0 0 0 0 0 0 0 0 0 0 0 0 0 0 0 0 0
0 0 0 0 0 0 0 0 0 0 0 0 0 0 0 0 0 0 0 0 0 0
0 0 0 0 0 0 0 0 0 0 0 0 0 0 0 0 0 0 0 0 0 0
0 0 0 0 0 0 0 0 0 0 0 0 0 0 0 0 0 0 0 0 0 0
0 0 0 0 0 0 0 0 0 0 0 0 0 0 0 0 0 0 0 0 0 0
0 0 0 0 0 0 0 0 0 0 0 0 0 0 0 0 0 0 0 0 0 0
0 0 0 0 0 0 0 0 0 0 0 0 0 0 0 0 0 0 0 0 0 0
0 0 0 0 0 0 0 0 0 0 0 0 0 0 0 0 0 0 0 0 0 0
0 0 0 0 0 0 0 0 0 0 0 0 0 0 0 -0 0 0 0 0 0 0
Wind_Speed_500mb
61 57 57 56 52 48 44 40 36 33 31 31 31 30 31 33 35 36 39 41 42 40
50 50 46 41 40 38 33 30 28 27 27 27 28 30 31 32 33 36 37 39 41 43
41 37 37 35 33 30 27 25 25 24 25 27 29 31 33 34 36 36 38 41 43 44
35 35 33 31 29 27 27 26 23 23 25 27 31 34 36 37 37 38 40 43 46 47
33 34 34 33 32 33 31 27 24 25 26 29 34 37 36 36 37 38 41 44 48 51
39 39 39 37 37 36 33 30 29 29 31 35 40 37 36 38 39 40 43 47 51 54
47 48 46 45 45 44 41 40 41 43 43 44 42 39 37 38 39 40 44 50 55 58
57 54 52 52 53 52 52 51 54 52 49 48 45 40 37 38 43 51 57 60 61 64
65 61 61 62 63 61 59 58 57 57 55 54 50 45 42 46 52 56 61 65 67 72
72 70 70 69 67 66 65 63 62 61 60 58 55 50 49 50 57 63 67 71 77 83
77 76 74 72 72 70 69 67 65 64 62 62 59 56 58 59 66 72 75 79 84 91
71 76 74 74 71 70 69 69 67 67 66 65 66 65 67 70 76 80 85 88 93 100
62 67 70 73 71 70 70 69 69 68 66 68 70 73 76 78 80 87 91 97 105 111
41 49 57 62 64 63 63 64 66 69 70 73 74 75 80 83 82 86 96 105 113 111
Wind_Direction_500mb
228 232 237 239 242 246 247 244 244 246 250 257 264 271 276 277 280 285 289 293 294 290
224 227 232 235 235 234 235 234 236 244 255 265 275 277 281 285 289 293 296 295 293 290
222 229 232 229 225 222 224 232 243 255 265 272 278 284 287 293 296 299 300 299 298 298
230 224 217 215 216 221 231 239 247 259 269 276 282 287 292 296 300 304 304 304 304 303
225 222 220 221 224 227 227 228 238 253 266 276 281 285 291 298 304 309 310 310 309 310
232 231 231 230 229 227 228 233 243 252 259 265 270 276 285 292 298 304 308 310 313 315
235 237 237 234 231 231 233 238 242 244 248 253 260 268 277 285 293 301 306 308 310 313
241 239 237 235 235 235 236 239 244 244 245 249 255 261 269 280 290 297 299 301 306 309
244 243 241 239 238 239 240 240 243 245 246 249 253 260 270 281 287 291 294 297 302 307
247 246 244 243 241 241 241 241 242 245 248 251 256 264 274 281 286 290 293 296 300 304
250 248 245 243 242 241 241 242 244 246 252 258 263 270 277 283 286 290 296 298 300 302
248 249 246 242 240 240 241 243 246 251 256 264 271 278 284 289 291 294 297 298 300 302
242 239 238 237 238 239 242 246 251 258 267 274 280 286 290 293 295 296 297 300 300 300
237 233 232 234 237 241 247 254 262 269 275 280 284 288 290 294 299 302 301 300 300 300
Wind_Speed_850mb
61 57 57 56 52 48 44 40 36 33 31 31 31 30 31 33 35 36 39 41 42 40
50 50 46 41 40 38 33 30 28 27 27 27 28 30 31 32 33 36 37 39 41 43
41 37 37 35 33 30 27 25 25 24 25 27 29 31 33 34 36 36 38 41 43 44
35 35 33 31 29 27 27 26 23 23 25 27 31 34 36 37 37 38 40 43 46 47
33 34 34 33 32 33 31 27 24 25 26 29 34 37 36 36 37 38 41 44 48 51
39 39 39 37 37 36 33 30 29 29 31 35 40 37 36 38 39 40 43 47 51 54
47 48 46 45 45 44 41 40 41 43 43 44 42 39 37 38 39 40 44 50 55 58
57 54 52 52 53 52 52 51 54 52 49 48 45 40 37 38 43 51 57 60 61 64
65 61 61 62 63 61 59 58 57 57 55 54 50 45 42 46 52 56 61 65 67 72
72 70 70 69 67 66 65 63 62 61 60 58 55 50 49 50 57 63 67 71 77 83
77 76 74 72 72 70 69 67 65 64 62 62 59 56 58 59 66 72 75 79 84 91
71 76 74 74 71 70 69 69 67 67 66 65 66 65 67 70 76 80 85 88 93 100
62 67 70 73 71 70 70 69 69 68 66 68 70 73 76 78 80 87 91 97 105 111
41 49 57 62 64 63 63 64 66 69 70 73 74 75 80 83 82 86 96 105 113 111
Wind_Direction_850mb
228 232 237 239 242 246 247 244 244 246 250 257 264 271 276 277 280 285 289 293 294 290
224 227 232 235 235 234 235 234 236 244 255 265 275 277 281 285 289 293 296 295 293 290
222 229 232 229 225 222 224 232 243 255 265 272 278 284 287 293 296 299 300 299 298 298
230 224 217 215 216 221 231 239 247 259 269 276 282 287 292 296 300 304 304 304 304 303
225 222 220 221 224 227 227 228 238 253 266 276 281 285 291 298 304 309 310 310 309 310
232 231 231 230 229 227 228 233 243 252 259 265 270 276 285 292 298 304 308 310 313 315
235 237 237 234 231 231 233 238 242 244 248 253 260 268 277 285 293 301 306 308 310 313
241 239 237 235 235 235 236 239 244 244 245 249 255 261 269 280 290 297 299 301 306 309
244 243 241 239 238 239 240 240 243 245 246 249 253 260 270 281 287 291 294 297 302 307
247 246 244 243 241 241 241 241 242 245 248 251 256 264 274 281 286 290 293 296 300 304
250 248 245 243 242 241 241 242 244 246 252 258 263 270 277 283 286 290 296 298 300 302
248 249 246 242 240 240 241 243 246 251 256 264 271 278 284 289 291 294 297 298 300 302
242 239 238 237 238 239 242 246 251 258 267 274 280 286 290 293 295 296 297 300 300 300
237 233 232 234 237 241 247 254 262 269 275 280 284 288 290 294 299 302 301 300 300 300